RH
13 13 12 12 12 12 11 11 12 13 14 15 16 16 16 17 18 18 18 18 18 18 18 17 16 15 14 13 14 14 14 14 13 13 12 11 10 10 10 10 11 11 11 11 10 10 10 12 14 15 16 16 15 13 13 11 11 11 10 8 6 7 6 6 7 6 6 6 6 6 7 6 6 7 6 7 12 24 43 58 68 73 74 74 71 67 62 53
12 12 11 11 11 11 11 11 12 13 14 15 16 16 17 18 18 18 18 18 18 18 17 16 15 15 14 14 15 15 15 15 14 15 14 14 12 11 11 10 10 10 11 11 11 10 10 10 11 12 14 17 20 20 22 19 14 11 10 9 7 8 8 6 5 6 6 5 6 5 5 6 7 8 10 17 30 46 66 78 85 86 82 76 71 69 61 50
12 12 11 11 11 11 11 12 13 14 15 15 16 16 17 18 18 18 18 18 18 18 16 15 15 14 14 14 15 16 16 16 16 16 16 16 15 13 12 11 10 9 9 10 11 11 11 10 10 10 11 13 17 20 23 24 24 22 18 16 17 18 18 15 16 19 16 13 15 15 15 22 27 31 38 48 62 77 88 93 96 93 88 82 76 71 61 48
12 12 11 11 12 12 13 14 15 15 16 16 16 17 18 18 17 17 17 17 17 16 15 14 14 13 13 14 14 15 17 18 18 18 17 17 16 16 15 14 12 10 10 9 10 11 11 12 10 10 10 10 12 14 16 18 22 24 22 21 25 28 28 28 30 32 30 29 33 33 33 39 45 53 65 77 90 101 103 104 106 102 96 90 81 73 61 45
13 13 13 14 14 15 16 16 17 17 17 17 17 17 18 17 17 17 16 16 16 15 14 14 13 13 14 14 15 15 16 17 18 19 18 18 18 18 17 16 15 13 11 10 9 10 10 11 12 11 10 10 10 11 12 12 14 16 16 17 18 20 21 22 22 20 20 21 21 22 21 22 23 28 41 60 84 102 105 104 107 106 100 92 82 71 60 43
16 16 16 17 17 18 18 18 18 18 19 18 18 18 18 18 17 17 16 16 15 15 14 14 13 14 14 14 15 16 17 17 18 18 18 19 20 20 19 18 17 16 14 12 10 10 10 10 11 12 12 11 11 11 11 11 11 12 12 12 12 13 12 12 12 10 10 10 10 10 10 10 10 11 16 30 56 80 93 98 103 104 99 92 80 68 56 38
20 19 20 20 19 19 19 19 19 19 19 19 19 19 18 18 17 17 16 15 15 14 14 13 13 14 14 15 15 16 17 17 17 18 18 19 19 20 21 19 19 18 17 15 13 11 10 10 10 11 11 12 12 12 12 11 11 11 11 11 11 12 12 11 11 10 10 9 9 9 9 9 9 9 10 15 35 62 83 95 102 103 98 87 75 61 45 25
22 22 21 21 21 20 20 20 20 20 19 19 19 19 18 18 17 16 15 15 14 14 14 13 13 13 14 14 15 16 17 17 18 18 18 19 19 19 20 21 20 20 20 18 15 13 11 11 11 11 10 11 12 13 13 13 13 13 13 13 13 13 13 12 11 11 10 10 10 9 9 9 8 8 8 13 39 72 92 101 103 103 97 85 68 47 27 13
23 23 22 22 22 22 21 21 20 20 19 19 19 18 18 17 16 16 15 15 14 14 14 13 13 13 13 14 14 16 17 17 18 18 19 19 19 18 19 20 19 20 21 20 17 15 13 13 13 12 11 10 11 12 13 13 13 14 14 14 15 15 14 13 12 12 11 10 10 10 9 10 9 9 8 13 40 76 94 102 105 97 89 83 64 34 15 11
24 23 23 23 22 22 21 20 20 19 18 18 18 17 17 16 16 15 15 14 14 14 14 13 13 13 14 14 15 17 16 17 17 18 19 20 20 19 18 18 18 19 20 20 18 15 15 16 15 13 11 11 12 12 13 13 13 15 15 16 17 17 17 15 14 13 12 10 10 11 10 10 11 11 12 12 29 65 89 99 99 90 85 77 53 26 17 18
24 23 22 22 21 20 20 19 18 18 17 17 17 17 16 16 15 15 15 15 14 14 14 14 14 14 15 16 17 16 16 18 18 18 19 20 20 19 18 17 17 18 18 19 17 15 17 19 18 14 12 13 12 12 13 13 13 14 14 15 17 18 18 17 16 15 13 12 10 11 11 10 13 13 14 14 23 53 85 101 96 87 83 64 40 27 24 26
21 21 20 19 19 19 18 18 17 17 17 17 17 18 18 17 16 17 17 16 15 16 17 16 16 17 18 19 19 17 18 19 19 19 19 19 19 19 18 17 16 17 17 16 15 16 18 21 21 15 14 15 14 13 14 13 13 14 13 14 15 16 18 18 19 17 15 13 10 12 12 10 15 17 16 17 23 34 54 83 90 77 66 48 37 35 33 34
30 28 27 25 24 23 22 21 20 19 19 20 23 24 23 22 21 22 22 21 20 21 21 20 21 22 22 23 22 20 20 21 21 21 19 18 19 18 18 17 16 16 15 15 15 15 17 22 22 15 17 19 15 14 15 14 13 14 14 14 14 15 16 17 19 19 17 15 11 12 13 11 14 20 19 18 29 33 33 54 68 59 51 44 42 43 40 40
45 44 42 40 38 35 33 32 30 28 27 29 33 35 33 31 31 32 31 29 28 28 27 26 26 27 27 26 24 23 23 22 22 21 19 19 18 17 17 16 16 15 14 14 14 14 16 20 20 18 22 19 15 17 17 14 14 15 15 14 15 15 14 15 18 21 19 16 13 12 14 13 13 20 24 20 28 39 36 38 48 49 47 46 46 45 42 39
51 51 50 50 48 47 45 43 40 37 37 39 43 44 41 40 40 39 38 37 35 34 32 30 30 29 28 27 26 25 23 22 22 20 19 18 17 16 16 15 14 14 14 13 14 14 15 18 19 18 19 17 20 23 19 16 16 15 16 16 16 16 15 14 16 20 22 18 15 13 15 14 13 19 27 26 26 39 46 40 39 44 47 47 47 45 39 35
53 53 52 52 51 51 51 50 47 44 43 45 47 47 45 43 43 42 41 39 37 35 33 31 31 30 28 27 25 24 23 22 20 19 18 17 16 16 15 14 13 13 13 12 12 13 14 16 16 15 15 20 26 25 21 20 18 15 17 19 19 19 16 14 15 19 23 21 16 15 16 16 15 17 26 32 30 38 53 55 45 42 47 49 47 45 40 34
54 53 52 51 50 50 50 50 49 46 46 46 46 46 44 43 42 41 39 37 36 34 33 31 30 29 27 26 24 23 21 20 19 18 17 16 15 14 13 13 12 12 12 11 11 12 13 14 14 14 15 21 28 30 28 22 17 16 19 20 23 23 20 16 15 17 21 22 18 16 17 18 16 16 24 35 37 38 49 62 63 54 48 48 47 47 43 37
50 49 49 48 47 46 46 46 45 44 44 44 43 42 41 40 39 38 37 35 34 33 31 30 28 27 25 24 22 21 19 18 17 16 15 14 14 13 12 12 11 11 11 11 11 10 12 13 14 14 15 22 30 34 29 18 15 19 21 23 27 29 26 21 17 16 19 22 19 17 18 19 18 16 24 38 44 43 45 52 61 63 58 52 50 50 46 41
42 42 41 41 40 40 39 39 39 38 38 37 36 36 35 35 34 34 33 32 31 30 28 27 26 25 23 21 20 19 18 16 15 14 14 13 12 12 12 11 11 10 10 10 10 10 10 11 13 13 14 16 21 26 21 14 17 22 25 29 31 33 31 26 21 17 17 21 20 18 18 18 19 17 23 41 49 47 50 50 49 54 59 59 56 52 48 44
36 35 34 33 32 32 31 31 31 30 30 30 30 30 29 29 29 28 28 27 26 26 24 23 23 21 20 19 18 17 16 15 15 14 13 13 12 12 11 11 11 10 10 10 9 10 9 10 11 11 12 12 16 25 24 21 27 31 34 35 31 33 35 31 26 20 17 20 21 19 19 18 20 18 21 40 49 42 44 52 51 46 48 56 58 51 45 41
31 30 29 28 27 26 25 26 25 25 25 25 25 25 26 25 25 25 24 24 23 22 21 21 20 19 18 17 17 16 16 15 15 13 13 13 13 12 12 11 11 11 11 10 10 10 9 9 10 9 11 12 15 24 27 25 32 40 42 39 35 34 34 33 30 24 19 19 22 21 19 18 19 19 21 33 41 33 28 37 49 50 43 44 48 46 41 39
30 29 29 28 27 25 24 24 24 24 23 22 22 23 23 23 23 23 22 21 21 20 20 20 19 19 17 17 17 16 16 16 14 14 14 14 14 13 13 12 12 12 11 11 11 10 10 9 10 10 10 11 12 17 21 21 27 39 45 44 43 34 29 34 32 25 22 21 24 23 20 20 18 18 21 26 32 28 18 18 31 43 43 39 38 39 39 35
31 31 30 29 28 26 25 25 25 25 24 23 22 22 22 22 21 21 21 20 20 19 20 20 20 20 18 16 17 17 19 18 15 17 17 15 14 13 15 14 13 13 12 12 12 11 11 10 10 11 10 11 11 12 15 16 20 34 43 49 49 35 28 34 28 23 26 25 26 25 21 20 18 19 21 23 27 23 13 8 14 25 33 35 35 37 36 26
26 25 25 24 24 23 23 23 23 23 22 22 21 21 21 20 20 20 19 20 21 20 20 21 21 22 20 16 16 20 24 21 17 19 19 16 15 15 16 15 14 16 15 13 14 13 12 12 12 12 11 10 10 10 12 12 15 24 35 47 50 39 33 32 24 25 32 31 31 29 24 20 18 20 20 22 26 22 12 7 7 10 16 24 29 31 26 15
20 19 19 18 18 18 18 17 18 18 18 18 18 18 18 18 18 18 18 19 24 25 20 21 24 23 21 17 16 19 24 23 19 20 21 19 18 18 17 17 18 19 17 17 17 15 14 15 14 13 12 12 11 11 10 10 12 15 24 36 39 35 36 33 27 32 38 37 35 33 29 25 19 20 21 20 24 21 13 8 6 6 9 13 17 18 13 8
18 18 17 17 17 16 16 15 15 16 16 16 16 16 16 16 16 16 17 18 26 33 24 19 25 26 24 20 18 18 22 27 22 18 22 23 21 21 20 20 21 19 19 21 21 17 16 17 17 15 15 14 13 12 11 10 11 11 15 19 22 25 34 38 33 37 44 39 36 38 37 31 23 20 21 20 21 21 14 8 6 6 7 8 9 9 7 7
18 18 18 17 17 17 17 16 15 15 16 16 16 16 16 16 16 16 17 17 25 37 31 20 22 27 28 25 21 18 21 29 24 16 23 27 23 22 22 22 23 22 21 24 25 20 18 22 22 19 19 18 16 13 13 13 12 11 10 11 13 17 27 37 36 42 47 37 35 43 43 37 29 21 22 19 18 21 16 9 7 7 7 8 8 8 7 8
19 18 18 17 17 18 18 17 16 16 16 16 16 16 16 17 17 17 19 18 23 36 40 29 22 24 30 30 26 20 20 27 27 19 21 26 25 23 24 26 26 23 20 24 29 23 21 27 25 23 27 24 18 16 16 16 13 11 10 10 11 12 18 26 33 45 48 36 40 50 45 41 35 24 22 19 15 21 19 10 9 10 9 9 9 8 8 9
20 19 18 17 17 17 19 19 18 17 16 16 16 17 17 18 19 20 21 21 24 34 42 39 30 25 27 29 30 27 22 24 29 25 20 24 28 26 26 29 27 22 20 25 30 25 26 30 26 27 31 25 19 20 22 19 14 13 13 12 11 10 12 15 23 39 46 42 48 53 47 44 40 30 23 17 14 20 23 15 10 11 10 9 9 9 9 11
19 18 17 17 17 18 19 21 21 20 18 17 17 17 17 17 19 22 23 26 31 37 41 42 37 31 28 28 29 31 29 26 27 28 24 24 28 27 27 28 26 24 22 25 31 31 30 30 28 29 29 22 20 25 28 23 16 15 15 13 12 10 10 10 14 24 38 49 52 51 50 47 43 39 27 17 15 19 23 19 12 10 11 11 10 10 10 10
18 18 18 18 18 19 20 22 23 22 21 19 17 17 17 18 19 20 23 31 38 39 39 41 41 38 34 29 27 30 34 34 30 28 27 27 28 27 28 29 29 31 28 30 40 39 30 29 31 28 24 21 22 27 31 26 17 17 16 13 13 12 10 10 10 14 27 46 50 46 51 50 46 45 33 20 18 18 20 22 18 13 13 14 13 10 11 11
18 18 18 19 20 22 23 25 25 24 23 22 20 18 17 18 18 18 24 35 39 37 39 42 43 42 39 34 30 28 32 37 37 31 27 28 30 29 29 29 30 32 31 33 38 33 25 26 27 24 21 21 24 30 32 25 16 16 15 14 14 14 13 11 10 10 17 32 39 39 48 52 48 48 41 28 21 18 18 22 25 20 14 17 17 13 11 12
19 19 19 19 20 22 24 27 27 26 24 24 22 20 18 17 17 20 28 36 37 35 39 43 43 43 42 39 35 30 28 32 37 36 30 27 29 30 29 28 27 29 31 32 31 26 24 25 26 27 27 26 29 31 27 19 14 14 16 18 17 15 14 13 11 10 11 17 24 31 44 51 50 49 47 38 28 20 17 19 25 27 21 17 19 18 15 13
20 20 20 19 19 20 22 25 28 28 26 25 24 22 20 18 18 21 29 35 34 34 37 42 43 43 43 43 40 35 31 30 31 35 34 29 28 30 30 30 29 29 32 32 30 28 27 26 30 34 32 27 27 26 21 16 15 17 18 18 19 17 15 13 12 11 10 10 13 21 37 48 50 50 49 45 37 28 21 18 21 27 28 22 19 21 20 18
21 21 20 20 20 19 20 22 25 26 26 26 25 23 22 21 21 21 25 31 35 35 35 38 42 42 42 43 43 40 37 34 31 32 34 33 30 30 31 31 31 30 30 28 27 27 25 26 31 32 28 24 24 24 21 18 19 20 17 19 23 19 14 14 14 14 13 11 9 14 28 41 46 49 50 47 45 38 29 24 20 23 28 29 27 25 23 22
21 21 20 20 20 19 19 19 21 23 25 25 24 24 24 23 23 22 23 27 33 36 36 36 38 41 42 41 42 43 41 38 35 32 33 34 33 31 30 30 31 30 28 26 25 24 23 26 28 26 24 24 25 24 20 19 20 18 17 24 26 18 15 17 17 16 15 13 11 10 18 31 39 45 49 48 48 44 37 31 26 22 23 28 34 35 31 26
21 20 19 19 20 20 19 18 19 21 23 24 24 24 25 25 24 23 23 25 28 33 37 37 35 36 40 40 40 42 43 41 39 36 33 32 32 32 30 29 29 28 27 26 26 25 26 30 28 24 27 29 25 22 19 18 19 18 22 28 25 17 20 22 19 17 16 14 12 10 11 20 29 38 45 48 47 47 43 37 31 26 22 23 28 35 40 36
21 20 18 18 19 19 18 18 18 19 20 22 23 24 24 25 25 24 23 23 25 28 35 39 36 33 35 38 39 40 42 43 41 39 36 33 32 32 32 30 28 27 27 26 27 28 30 35 32 28 32 33 26 22 20 18 19 20 24 26 22 21 24 24 20 19 18 15 14 13 11 13 18 26 37 46 47 46 45 41 35 30 26 24 22 24 35 42
21 20 18 17 18 18 17 17 17 17 18 19 22 23 23 25 27 26 23 22 23 25 29 35 37 34 32 34 37 39 40 40 40 39 37 35 33 32 32 31 29 27 26 26 27 28 30 34 35 33 35 33 27 23 22 22 22 22 22 20 20 24 25 23 21 19 19 19 17 16 14 12 12 16 25 37 45 46 45 43 40 34 29 27 24 21 23 32
16 17 17 16 17 18 17 16 16 16 16 17 19 21 22 24 25 26 25 22 22 22 24 28 34 38 35 32 33 38 40 40 38 36 35 35 34 33 32 31 31 29 27 26 26 27 28 30 34 35 34 31 27 24 24 25 24 22 21 19 18 21 21 19 20 20 21 21 20 18 16 14 14 13 15 24 36 44 46 46 45 42 37 31 27 25 22 22
12 12 12 13 15 17 17 16 15 14 15 15 16 18 20 22 23 25 25 24 22 22 22 24 29 35 38 36 32 34 38 41 40 36 33 31 32 33 33 31 31 30 29 27 25 26 26 26 29 32 30 28 27 26 25 24 23 22 21 19 17 16 16 15 17 20 21 22 22 20 18 16 17 17 15 14 21 33 43 47 47 46 45 41 35 31 27 24
11 10 9 9 11 12 14 15 15 14 13 13 14 15 18 20 22 22 24 25 24 22 22 23 25 29 35 39 36 33 34 38 42 40 36 32 29 30 32 32 31 30 30 29 27 26 26 24 26 30 29 26 28 28 25 22 22 21 20 20 18 16 15 14 17 21 22 23 24 24 26 23 18 19 19 15 14 19 30 41 47 48 48 47 44 39 33 29
12 11 9 8 8 9 10 11 12 13 13 12 12 13 14 16 19 20 21 24 25 24 22 22 23 24 28 34 38 37 34 33 37 40 40 37 31 27 28 29 31 30 29 30 28 26 25 24 24 30 30 26 27 29 27 23 22 20 19 20 19 18 18 16 18 19 18 22 24 28 35 29 19 21 22 20 19 15 17 27 37 45 48 47 47 45 41 37
12 12 11 10 9 9 9 9 9 10 11 11 11 10 11 12 15 18 19 21 22 24 23 21 21 22 23 27 33 38 39 35 33 35 38 40 37 32 28 26 27 29 29 29 29 27 26 24 23 28 30 27 25 27 26 24 23 20 20 21 20 21 21 19 20 19 17 20 21 27 40 34 21 22 24 22 23 20 16 17 23 34 43 46 47 47 47 45
8 9 10 10 11 11 11 10 10 9 8 10 10 10 9 9 10 13 16 18 19 21 23 22 21 20 21 23 26 32 37 38 35 32 33 37 39 37 33 28 26 26 27 28 28 27 26 24 24 26 29 29 26 25 25 24 24 23 22 22 22 23 22 21 24 21 19 22 18 24 41 38 20 19 22 21 22 22 20 17 15 20 30 39 45 47 48 48
5 6 6 7 8 10 11 12 12 12 10 9 9 9 9 9 8 9 11 15 17 19 21 22 22 20 20 21 24 27 31 36 37 34 32 33 36 38 37 34 30 27 26 26 26 27 26 25 24 24 26 28 27 26 25 24 24 24 24 24 24 23 21 21 21 19 20 23 17 20 34 33 21 18 18 19 22 23 22 22 18 16 18 25 34 41 45 47
3 3 4 4 5 6 8 10 12 13 13 12 11 9 9 9 8 8 8 10 13 16 18 20 21 22 21 20 22 24 27 31 34 34 32 30 32 35 37 37 35 31 28 26 25 26 26 26 25 24 24 26 26 25 24 23 22 22 23 24 24 24 22 20 18 18 20 20 18 22 27 27 25 20 14 15 19 20 20 22 22 20 18 17 21 27 33 39
2 2 2 3 3 3 4 6 8 10 13 14 15 13 11 9 8 8 8 7 8 11 14 17 19 21 21 20 20 22 24 27 29 30 31 29 29 31 33 35 36 35 32 29 27 25 25 24 25 24 24 25 25 24 22 21 21 21 21 23 24 23 22 20 18 20 20 16 18 25 24 20 21 19 14 14 14 15 16 17 19 22 22 20 18 18 21 25
2 2 2 2 2 2 2 3 5 7 9 11 14 16 16 14 10 8 8 8 7 8 9 12 15 17 20 21 20 20 21 24 26 26 27 27 27 29 30 31 32 34 34 32 29 27 25 24 23 24 24 24 24 24 22 20 18 18 18 20 21 22 21 20 20 20 19 16 18 22 19 16 18 18 18 16 12 12 13 13 16 20 22 24 22 20 18 18
1 1 2 2 2 2 2 2 3 4 6 7 10 13 16 18 16 12 9 8 8 8 7 8 10 12 15 19 20 20 19 20 23 25 25 24 25 26 27 28 29 30 32 32 31 29 27 25 23 22 23 23 24 24 23 21 18 16 17 18 20 21 20 20 20 19 18 17 18 18 16 15 16 18 21 21 16 13 12 12 14 15 19 23 24 23 22 20
1 1 1 1 2 2 2 3 2 2 4 5 6 9 12 16 19 18 15 11 8 8 8 7 8 9 11 14 17 19 19 18 19 22 23 23 23 23 23 25 26 27 28 29 29 29 28 26 24 22 21 22 23 23 24 23 20 18 19 20 20 21 20 20 20 19 18 18 19 19 17 17 18 20 22 22 18 14 13 13 12 12 14 18 22 25 24 23
1 1 1 1 1 1 1 2 2 2 3 3 4 6 7 11 15 18 19 17 13 10 8 7 7 7 8 9 12 15 18 19 18 19 21 22 23 21 20 21 23 24 25 26 26 27 27 27 25 24 21 21 21 22 22 23 22 20 20 21 21 21 20 20 20 18 17 17 18 18 17 19 22 21 19 19 17 15 14 13 12 12 12 13 19 24 26 25
Wind_Speed
32 31 30 29 29 28 27 25 24 23 22 21 20 20 20 20 20 19 19 19 20 20 19 18 17 16 14 12 11 11 11 11 11 9 8 7 7 8 8 8 8 8 7 5 5 5 5 4 4 3 3 3 5 6 8 11 14 18 22 24 26 27 29 30 30 30 30 30 31 31 32 32 32 33 33 33 32 31 30 31 31 32 32 31 30 28 26 25
33 32 32 31 30 29 28 27 25 24 23 22 22 21 21 21 22 21 21 21 21 21 21 20 19 17 15 13 12 12 13 12 12 11 10 8 8 7 8 8 8 9 9 7 6 4 3 3 3 3 2 2 2 4 5 7 10 13 16 19 21 23 25 26 26 26 27 27 28 29 29 30 31 32 32 32 32 32 32 32 33 33 32 31 29 28 26 25
34 33 33 32 31 30 29 28 26 25 24 24 23 23 23 23 23 23 23 23 23 23 22 21 20 19 17 15 13 13 15 15 14 13 12 11 10 9 8 8 8 9 10 10 9 7 4 3 2 2 1 1 1 1 2 4 6 9 12 14 16 18 20 22 22 23 25 25 26 27 27 28 30 31 32 32 33 33 34 34 34 33 32 30 28 26 25 24
34 34 33 32 31 30 30 29 27 27 26 26 26 26 26 26 26 25 25 25 25 25 24 23 22 21 19 17 16 15 16 17 17 16 15 14 14 12 10 9 9 10 10 11 11 10 8 6 4 3 3 2 1 1 2 3 4 6 9 10 12 14 16 18 19 21 23 23 24 26 26 28 30 31 33 34 34 34 34 33 32 32 30 28 26 25 24 24
34 34 33 33 32 31 31 30 29 28 28 28 28 28 28 28 29 28 28 27 27 27 26 25 24 23 22 21 20 19 19 19 19 19 19 18 16 15 14 12 11 11 11 12 12 12 12 10 8 6 6 5 4 4 4 4 4 5 7 8 10 12 14 16 16 17 19 20 21 24 25 27 29 31 33 33 33 33 33 31 30 28 26 25 24 24 23 23
35 34 34 34 33 32 32 31 31 31 30 31 31 31 31 31 31 31 31 30 29 29 28 27 26 25 25 24 24 23 23 22 22 22 22 21 20 18 18 16 14 13 13 13 12 13 14 13 12 10 9 8 7 7 7 6 6 6 7 8 9 11 13 15 14 14 15 16 17 19 21 23 26 27 29 31 32 31 31 29 27 25 24 24 24 23 23 23
36 35 35 35 35 34 34 34 33 33 33 33 34 34 34 35 34 34 34 33 32 31 30 30 29 28 28 27 27 26 26 26 25 25 24 24 24 22 21 21 19 16 16 15 14 14 15 15 15 14 13 11 10 10 10 9 8 8 8 8 9 10 13 15 15 14 14 15 15 15 17 19 21 22 24 26 27 27 26 26 25 24 23 23 22 21 21 21
37 37 37 37 37 37 37 37 37 36 36 36 36 37 37 37 37 37 36 35 34 33 33 32 31 31 30 30 30 29 29 29 28 28 27 27 27 26 24 24 23 20 19 19 17 15 15 16 17 17 17 15 13 12 12 12 11 10 10 10 9 10 12 15 16 14 14 14 14 14 15 17 17 18 19 20 21 21 20 20 21 21 20 19 18 18 18 17
40 40 40 40 40 40 40 40 40 39 39 39 39 39 40 40 40 39 38 37 37 36 36 35 34 33 33 33 32 32 32 31 31 30 29 29 29 29 27 27 26 24 23 23 21 18 16 17 19 19 19 18 16 15 15 14 13 12 12 11 10 11 12 14 15 15 15 15 14 13 15 16 16 16 16 17 19 19 19 19 19 19 19 17 15 15 14 12
43 43 43 43 43 43 43 43 42 42 41 41 41 42 42 42 42 41 40 40 39 38 38 37 37 36 36 35 35 34 33 33 33 32 31 31 30 30 30 29 28 27 26 26 26 22 17 19 21 21 21 20 19 18 17 17 16 15 14 12 11 12 13 13 14 15 16 16 15 13 14 16 15 15 15 14 15 16 17 17 18 18 17 16 14 12 11 8
46 46 46 46 46 46 45 45 45 44 43 43 43 44 44 44 44 43 43 43 42 41 41 40 39 39 38 37 37 36 35 34 34 33 32 32 32 32 32 32 30 29 29 29 29 26 21 21 24 24 22 22 22 20 20 19 18 17 16 14 13 13 13 13 13 15 17 18 16 13 13 15 15 14 13 11 10 12 14 15 15 15 14 14 12 10 9 6
48 48 48 48 48 48 47 47 46 46 44 44 45 46 47 46 45 45 45 45 44 43 43 42 41 40 39 39 39 38 36 35 35 35 35 34 34 35 35 34 33 32 32 31 31 29 26 25 27 26 23 24 24 22 22 22 20 19 18 16 15 15 14 13 12 14 16 19 18 14 13 14 14 14 12 10 8 8 11 14 15 14 12 12 10 9 8 8
50 50 50 50 50 50 49 49 48 47 46 46 47 48 49 48 47 47 47 46 45 44 44 43 42 41 40 40 40 39 37 37 37 38 38 37 36 37 37 38 37 36 35 34 33 32 30 30 31 29 25 26 27 25 24 24 22 21 20 19 17 17 16 13 11 13 16 18 19 15 14 14 14 14 14 11 8 7 6 10 13 13 12 11 10 10 10 11
52 52 52 52 52 52 51 51 50 49 48 47 49 50 50 49 48 48 48 48 46 46 45 43 42 42 42 42 41 40 39 39 40 40 40 40 40 40 40 41 41 41 39 38 37 36 35 35 35 33 29 29 29 27 27 26 25 23 21 21 19 18 18 15 11 12 15 18 19 16 15 15 15 15 15 13 9 6 3 6 11 12 12 12 12 13 14 14
53 53 53 53 53 53 53 53 52 50 49 49 50 51 51 49 49 49 49 49 48 47 46 44 44 44 44 44 43 42 42 42 43 43 42 42 43 43 43 43 44 44 43 41 41 40 39 39 38 37 35 32 30 30 30 29 27 26 23 22 20 19 20 17 13 10 13 16 18 16 15 15 15 15 16 15 11 7 3 3 8 11 12 13 14 15 16 15
55 55 55 55 54 54 54 54 54 52 50 51 52 52 52 50 50 50 50 50 50 49 48 46 45 45 46 46 45 45 45 45 45 45 44 44 44 45 45 45 45 45 45 45 44 44 43 43 42 41 38 34 34 34 33 32 30 28 26 24 22 20 20 19 15 10 12 15 16 16 14 15 15 15 15 15 12 8 4 4 5 8 11 12 13 14 15 15
58 58 58 57 57 56 56 56 55 54 52 53 54 53 53 52 51 52 52 52 52 51 49 48 48 47 48 48 46 47 47 46 46 46 47 46 45 46 46 46 46 47 47 46 46 46 46 47 45 43 40 38 37 36 37 36 33 30 28 27 23 21 21 21 17 12 12 14 15 14 13 13 14 14 14 14 12 9 6 6 8 9 9 11 12 13 14 14
60 60 60 59 59 58 58 58 57 55 54 54 55 55 55 54 53 53 54 54 54 53 51 50 50 49 49 49 48 48 48 47 47 47 47 47 46 46 46 46 46 47 47 47 47 47 48 49 48 45 43 42 41 41 42 40 35 31 30 29 26 24 23 22 19 15 13 14 14 13 12 12 12 13 13 14 13 10 8 7 10 11 11 11 11 12 13 14
62 62 62 62 61 60 60 59 59 58 55 55 56 56 56 55 55 54 55 56 55 54 53 52 52 51 50 49 49 48 48 48 48 47 46 47 46 45 45 45 45 46 46 46 46 47 49 49 49 48 47 45 44 45 44 39 36 33 31 31 30 28 26 24 21 18 15 14 14 13 12 11 10 11 11 12 13 11 9 8 9 11 12 13 12 13 14 14
64 64 64 64 63 62 61 61 61 60 58 57 57 58 56 56 56 55 56 56 56 55 54 54 53 52 50 48 48 49 48 46 47 45 44 45 46 44 44 44 44 44 44 44 45 46 48 48 49 48 48 47 45 46 44 40 37 35 34 35 34 32 30 27 24 21 17 14 14 14 12 11 10 9 10 10 11 11 10 9 9 9 10 12 13 14 14 13
66 66 66 66 66 64 63 63 63 61 61 59 58 59 58 57 56 56 57 57 56 55 54 54 53 52 51 47 46 47 45 45 46 44 42 43 43 43 42 43 42 42 42 43 43 45 46 45 46 47 47 47 47 47 46 42 40 39 39 38 37 36 34 30 27 23 19 15 13 14 14 11 10 9 9 9 9 10 10 9 9 8 8 11 13 14 14 13
68 68 68 68 68 67 65 64 65 64 63 62 60 60 59 58 57 56 57 57 57 54 53 53 52 53 52 44 42 44 44 46 46 42 41 41 42 42 41 41 40 39 40 41 41 42 42 42 43 44 45 46 47 48 48 45 42 42 42 40 40 40 35 33 31 26 21 16 13 15 15 13 11 8 8 9 9 9 8 8 9 9 8 9 11 12 13 13
70 69 70 70 70 69 67 65 66 65 65 64 63 61 60 59 58 57 56 56 57 54 52 53 50 52 52 44 41 41 43 47 43 39 41 41 41 39 38 38 38 37 38 38 38 39 39 39 40 42 43 44 46 47 48 46 44 44 44 44 44 41 37 35 33 28 23 17 15 16 17 15 13 9 8 11 10 8 7 7 8 9 9 9 11 12 13 13
70 70 71 71 71 71 69 67 66 66 66 66 64 63 61 60 58 57 55 55 57 55 53 52 50 51 52 46 39 38 44 47 42 40 42 42 39 36 37 37 35 34 36 35 35 36 35 36 38 39 40 41 43 44 46 46 45 46 46 47 47 41 38 37 33 29 26 20 18 18 18 17 15 11 10 11 10 8 7 6 7 8 9 10 12 14 14 14
71 71 71 72 72 72 72 69 67 67 68 67 66 65 64 62 60 59 57 55 54 57 55 50 50 52 52 47 40 41 46 48 45 41 41 41 38 36 37 35 33 35 34 31 31 32 31 32 34 35 36 37 39 41 43 44 45 46 48 51 47 41 39 38 34 32 29 25 21 18 19 19 18 14 12 12 11 8 6 5 6 7 9 10 12 13 14 14
73 72 72 73 73 73 74 71 69 69 69 69 67 66 65 64 62 60 59 55 53 58 58 51 50 52 51 48 44 43 45 50 50 41 40 43 40 38 38 35 36 37 31 28 30 31 28 28 29 30 31 33 35 37 39 40 42 46 49 49 44 41 40 39 37 34 33 30 23 19 20 21 20 18 15 14 12 7 5 5 4 5 8 10 11 12 14 16
75 74 74 74 73 74 74 73 72 70 70 70 68 67 66 65 64 61 61 57 53 58 60 53 50 51 52 50 48 45 45 52 53 41 41 46 43 40 39 38 39 37 32 29 32 32 27 26 28 27 27 29 31 32 32 35 40 43 44 42 42 43 42 41 39 36 35 33 26 22 23 24 23 21 18 17 14 8 5 5 5 7 10 11 12 13 15 17
78 77 76 76 75 74 75 75 74 72 71 71 70 68 67 65 64 62 62 59 55 57 60 57 52 51 51 52 51 49 47 53 53 44 44 48 45 42 40 40 41 39 35 32 35 34 28 28 29 26 26 28 28 26 27 33 36 36 36 38 42 43 43 43 40 38 38 35 29 27 28 29 27 23 21 21 16 11 8 7 7 9 11 12 13 14 16 19
82 80 79 78 77 75 75 76 75 74 73 72 71 69 68 66 65 64 63 60 57 56 58 58 56 52 52 52 53 53 50 52 53 49 47 47 46 44 42 44 44 41 36 34 38 36 31 32 31 28 30 30 26 24 27 31 31 29 31 36 39 40 42 43 41 41 40 36 34 34 32 32 29 24 25 25 18 14 11 10 10 11 12 13 13 15 17 20
86 84 82 81 79 77 77 77 76 76 76 75 72 71 70 69 67 66 63 60 58 57 57 59 58 56 54 54 55 55 54 54 53 51 50 49 49 46 45 46 44 40 37 35 38 38 35 35 34 34 35 31 26 25 28 29 27 26 29 32 33 36 39 41 42 42 40 39 42 40 35 33 31 28 28 27 21 18 17 15 13 13 14 14 14 16 18 20
86 86 84 83 81 79 79 78 78 77 77 77 75 73 72 71 70 68 62 60 61 59 58 60 60 59 57 56 56 56 57 56 54 53 51 50 50 47 46 46 43 41 38 37 39 41 39 37 37 38 37 31 28 28 29 29 25 25 27 28 28 31 33 36 40 42 43 45 47 43 36 34 34 33 30 27 25 22 21 19 17 16 16 15 15 16 18 20
86 85 84 83 81 80 80 79 80 79 78 79 78 76 75 73 72 68 63 62 64 61 60 61 61 62 61 59 58 58 60 59 56 54 53 52 51 49 49 49 48 45 42 42 44 44 41 38 38 38 34 29 28 28 31 31 27 26 27 24 24 26 28 32 37 42 46 49 48 44 38 35 37 37 32 29 29 26 23 22 21 20 19 18 17 17 19 21
86 85 84 83 81 81 81 81 82 81 80 80 80 79 78 76 71 67 66 67 66 64 63 63 63 65 65 63 62 61 62 62 60 57 55 54 53 52 52 52 50 47 44 46 46 43 40 37 34 33 31 29 29 32 34 33 27 24 22 20 21 23 25 29 34 39 45 48 46 44 38 38 41 40 37 34 31 29 27 25 24 23 23 21 19 19 20 21
86 86 85 84 82 81 81 82 84 84 83 82 81 81 81 77 72 69 70 72 69 67 67 66 66 67 68 67 66 63 63 64 63 60 57 55 54 53 53 52 51 49 48 49 46 43 42 38 34 35 36 35 34 36 36 31 24 20 19 19 21 24 24 25 28 32 39 42 43 42 39 41 46 44 41 37 32 31 30 29 27 26 26 25 23 21 22 23
87 87 85 84 83 83 82 83 85 87 87 85 83 82 80 77 75 74 75 75 73 71 70 70 70 71 71 71 69 67 66 66 65 63 60 57 55 55 55 54 54 53 52 51 49 47 44 41 41 41 40 37 36 37 34 27 23 22 19 18 22 23 20 20 22 25 31 36 41 44 43 46 50 46 42 40 36 34 33 32 31 29 28 28 27 26 25 25
89 88 87 85 84 84 83 84 85 87 89 89 87 83 80 79 80 80 78 78 77 75 74 74 74 74 74 73 72 71 70 68 66 65 64 61 58 57 57 58 57 55 53 51 49 48 44 44 45 41 39 39 38 36 31 26 24 20 15 19 23 17 13 16 19 21 26 32 38 44 47 50 51 47 44 43 41 39 36 34 34 32 31 30 30 30 28 27
90 90 88 86 85 86 86 85 85 87 89 90 89 85 82 82 83 83 82 80 80 79 79 78 78 77 76 75 74 74 73 71 69 68 67 65 62 60 59 59 58 56 52 49 48 47 44 45 45 40 39 41 38 34 29 25 23 18 17 22 19 11 12 15 16 18 23 27 31 39 46 51 52 50 49 46 44 43 41 38 36 35 33 32 32 32 31 30
90 91 89 87 86 88 88 87 86 87 88 89 89 87 86 85 85 85 85 84 83 83 82 82 81 80 79 78 77 77 76 75 73 71 70 68 65 62 61 60 58 57 53 50 50 49 47 47 46 43 42 42 39 34 29 26 24 22 23 22 14 11 14 15 14 16 18 21 25 31 41 49 53 53 51 49 48 46 43 40 38 37 36 36 35 33 33 33
91 91 90 87 88 90 90 89 88 88 88 88 88 89 88 88 88 88 88 87 87 86 85 85 84 83 82 81 80 79 79 79 78 76 74 71 68 65 63 61 59 58 56 54 54 53 51 50 49 48 47 45 40 35 31 30 29 28 26 22 17 16 17 17 15 14 15 18 22 27 36 45 50 52 50 49 49 47 45 42 40 38 38 38 37 35 34 34
92 92 91 88 90 92 91 91 90 89 89 88 88 89 89 89 90 91 91 90 89 88 88 87 87 86 85 84 83 82 82 82 82 80 78 74 71 68 66 64 62 60 59 58 58 57 55 53 52 53 52 47 42 37 35 35 34 32 29 26 23 23 21 18 15 14 15 18 22 25 31 37 41 44 47 49 49 48 47 45 42 40 39 39 39 37 36 35
95 95 93 90 91 93 93 92 92 91 90 90 89 89 90 90 91 92 93 91 90 90 90 89 89 89 87 86 85 85 85 84 85 84 81 78 74 72 70 67 65 64 62 61 60 60 59 56 54 56 54 49 45 43 42 41 39 36 32 29 27 25 22 15 13 15 16 18 19 20 24 30 31 33 39 44 48 49 48 47 46 44 42 42 41 40 39 38
98 98 95 92 93 95 94 94 94 93 92 91 90 90 91 91 92 93 94 92 92 92 92 92 92 91 90 90 89 88 87 87 88 87 85 82 79 76 73 71 69 67 65 64 63 62 61 58 56 57 56 52 49 48 47 45 43 40 35 32 29 25 20 15 14 16 16 16 16 14 18 26 27 25 28 35 42 48 49 49 49 48 47 46 45 43 41 40
101 101 98 95 95 96 96 95 94 94 94 92 91 90 92 93 93 93 94 94 94 94 94 94 94 94 93 93 92 91 90 90 90 89 87 85 83 80 77 75 73 72 69 67 66 64 63 61 59 58 59 56 53 52 51 49 46 42 38 36 32 26 23 21 20 19 15 13 13 12 16 26 26 22 21 24 31 39 46 50 52 52 51 51 49 46 44 43
104 104 102 99 97 97 98 97 96 95 95 94 93 92 92 93 94 94 95 96 95 95 96 96 97 97 96 95 95 94 93 92 92 91 90 88 86 83 81 79 77 76 74 71 69 67 66 64 61 60 61 60 57 55 53 50 48 44 40 39 36 32 31 27 24 23 18 15 14 13 17 27 26 22 21 21 24 30 38 46 52 54 54 53 52 50 49 47
104 104 104 103 101 100 100 99 97 96 96 96 96 95 94 93 94 95 96 96 96 96 96 98 99 99 98 97 97 97 96 95 94 93 92 91 89 87 84 82 81 79 78 76 73 71 69 67 64 63 63 62 60 57 54 52 49 45 43 41 39 37 34 31 29 27 22 21 19 15 19 29 29 23 21 20 22 24 29 36 45 51 54 54 53 52 52 51
98 100 102 102 102 102 102 101 99 99 98 98 98 98 97 95 94 94 96 96 97 97 98 98 99 99 99 99 99 99 98 98 97 96 95 93 91 90 88 86 84 83 81 79 77 75 73 70 68 67 65 64 62 60 58 56 52 48 46 44 42 40 38 36 34 28 26 27 23 21 25 30 30 27 23 19 20 22 23 26 33 40 47 52 54 54 53 53
88 91 93 96 97 98 100 101 101 101 100 100 100 100 99 98 97 95 95 96 97 98 99 98 98 100 101 101 101 101 101 101 100 99 97 96 94 92 91 89 87 86 84 83 81 79 77 75 73 70 68 66 65 64 63 60 56 52 50 47 45 44 42 40 35 31 31 29 24 26 30 30 30 33 28 22 21 21 21 21 24 28 35 42 49 53 55 55
78 80 83 87 89 90 93 96 99 102 102 102 102 102 101 100 100 98 97 96 96 98 99 99 99 100 101 102 103 103 103 103 103 102 100 98 96 95 94 92 91 89 87 86 85 83 81 80 77 74 71 69 67 67 66 64 60 57 53 51 49 48 46 42 38 37 36 31 27 31 32 29 30 34 33 29 24 21 20 20 20 22 26 31 38 45 51 54
67 70 72 76 80 81 84 87 92 97 101 102 104 105 104 103 102 101 99 98 97 97 98 98 99 100 101 102 104 105 105 105 105 104 102 100 98 97 96 95 94 92 91 89 88 86 84 83 82 79 75 73 71 70 69 67 64 60 56 54 53 51 48 46 44 43 41 36 34 35 32 28 30 33 36 38 33 25 21 20 20 22 23 26 30 36 42 47
58 60 63 66 69 72 75 79 83 89 95 99 102 105 106 106 106 104 102 101 99 98 97 98 99 100 100 102 104 106 106 106 106 105 104 103 101 100 99 98 97 95 93 92 91 89 88 86 85 83 80 77 75 74 72 70 67 62 59 57 56 54 52 50 48 47 44 40 38 38 33 30 33 36 38 41 41 34 27 23 23 24 24 26 27 30 34 38
52 53 55 58 59 62 67 71 74 79 87 93 98 102 105 108 109 108 106 103 101 100 99 98 98 99 100 101 102 104 105 106 107 107 106 105 104 102 101 99 99 97 96 95 94 92 91 89 87 86 84 81 80 78 75 73 70 66 62 61 60 59 56 54 52 50 47 44 42 40 35 33 38 42 42 42 44 42 36 31 28 27 26 26 27 29 31 33
46 48 50 52 52 53 58 62 66 71 77 84 91 97 101 106 109 111 110 107 105 103 102 100 99 99 99 100 101 102 103 105 107 108 108 107 106 105 103 101 100 99 98 97 96 94 93 91 90 89 87 84 84 83 79 77 74 69 66 67 65 62 58 57 55 52 50 49 46 41 38 41 46 48 46 45 45 44 43 39 34 30 28 28 28 29 30 31
Wind_Direction
271 272 272 272 273 273 274 274 274 274 273 273 274 275 278 282 284 286 289 291 294 296 298 300 300 301 301 302 304 304 303 308 316 325 330 329 333 338 337 337 337 338 341 350 6 21 31 44 59 83 121 164 196 210 224 236 240 241 242 242 246 250 253 255 258 261 263 266 269 270 272 274 275 275 274 275 275 277 278 279 280 281 283 284 286 287 290 292
271 271 272 272 273 273 273 273 272 271 269 269 270 271 274 276 279 281 283 285 288 290 292 294 293 293 292 291 291 292 294 298 304 309 310 309 315 323 324 321 320 322 322 323 327 338 357 12 26 47 73 105 149 186 205 221 232 237 239 242 244 249 254 256 259 263 264 266 268 270 272 274 274 274 276 277 278 279 279 279 279 280 281 281 283 285 287 289
272 272 272 273 273 273 272 272 271 269 268 268 268 269 271 272 274 276 279 281 283 285 287 288 288 287 285 283 280 282 286 290 293 296 298 298 299 304 308 306 304 307 309 310 310 308 306 309 321 338 18 77 115 167 207 221 233 239 243 245 248 252 257 259 261 263 265 267 269 272 274 275 276 277 278 279 279 279 278 278 278 278 278 279 281 282 284 286
273 273 273 273 273 273 273 272 271 270 269 269 269 269 270 271 272 274 275 277 280 282 283 283 283 282 281 279 276 276 278 283 286 287 290 290 291 293 293 292 290 292 296 299 300 298 294 285 275 272 272 261 243 249 241 243 246 251 254 255 260 262 265 266 267 269 271 273 276 277 278 277 277 277 277 277 277 276 276 276 276 277 277 278 278 279 281 283
272 273 273 273 273 273 273 273 272 272 271 271 271 271 272 272 273 274 274 275 277 279 280 280 279 279 279 278 277 276 275 277 280 283 285 285 285 286 285 281 279 282 285 287 289 290 289 285 274 262 255 249 247 248 250 253 257 261 262 265 268 270 271 270 270 275 278 280 281 281 279 277 275 274 273 273 272 272 273 274 274 274 275 275 275 276 279 280
271 272 272 273 273 273 273 273 273 273 273 273 273 273 274 274 274 274 275 275 275 276 277 277 277 277 278 278 278 278 276 276 278 280 282 282 281 280 280 280 276 274 276 276 277 280 282 282 278 270 260 251 245 246 247 248 254 260 264 269 274 277 278 275 274 278 282 283 285 284 280 275 273 272 271 270 270 270 270 271 272 272 272 271 272 273 274 274
270 271 271 271 272 272 273 273 273 273 273 274 274 274 275 275 275 275 275 275 275 275 275 275 275 276 276 277 278 277 278 278 277 277 279 279 278 277 277 278 276 272 271 270 268 269 273 277 278 275 269 261 252 248 248 247 249 254 258 263 271 280 282 280 278 283 287 288 290 292 287 281 277 274 273 271 270 270 270 270 270 269 268 267 267 267 267 267
269 269 270 271 271 271 272 272 272 272 272 273 274 274 274 274 274 274 275 275 275 274 274 274 275 274 275 275 276 276 277 277 277 277 277 276 277 277 275 274 275 272 268 267 265 263 265 270 275 274 272 268 262 256 254 252 250 252 257 260 268 277 282 282 281 286 291 291 293 299 301 297 292 287 281 275 272 271 270 269 266 263 262 263 263 261 259 259
268 268 269 269 269 270 270 271 271 271 272 272 273 274 274 274 274 274 274 274 274 274 274 274 274 274 275 275 275 275 275 276 276 276 276 275 275 275 274 272 272 271 267 266 266 262 260 264 269 268 269 270 267 262 259 258 256 254 256 261 268 275 280 284 286 288 289 289 293 305 319 317 310 304 295 283 272 266 263 262 261 259 259 260 261 258 253 249
267 267 267 268 268 268 269 269 270 270 271 272 272 273 273 273 273 273 273 273 273 274 274 274 274 275 275 275 275 274 275 276 276 275 275 274 274 274 273 271 270 269 267 266 267 266 260 258 262 262 263 267 267 265 263 262 260 258 258 261 267 273 278 284 289 291 290 290 296 312 331 331 327 320 309 296 277 264 263 264 261 258 256 254 253 249 241 232
267 267 267 267 267 267 268 268 268 269 269 270 271 271 271 271 272 273 273 273 273 273 274 274 275 275 275 275 274 274 275 275 275 275 273 272 273 272 272 272 271 269 267 266 268 269 261 253 255 256 257 261 263 263 264 264 262 260 260 261 264 269 274 282 291 295 295 294 297 316 334 335 339 337 326 321 301 273 261 259 258 254 248 241 238 235 224 209
267 267 267 267 267 267 267 267 268 268 268 269 270 271 271 271 272 273 273 273 273 273 274 274 275 275 275 275 274 275 275 274 274 273 272 271 271 271 271 272 271 269 267 267 269 269 262 252 252 252 253 257 259 259 261 262 261 260 261 262 263 266 269 276 288 295 296 296 297 315 334 336 347 351 342 346 343 307 267 248 248 250 238 225 221 218 210 196
268 268 268 268 268 268 268 268 268 268 269 270 271 271 271 272 273 273 273 274 274 274 274 275 275 276 276 275 275 276 274 273 272 271 272 273 271 270 271 271 271 270 268 268 268 267 261 253 253 254 250 251 254 254 257 259 259 259 259 260 262 263 266 269 279 291 296 297 299 314 332 335 348 357 354 360 10 352 291 242 237 238 223 212 208 207 206 197
269 269 269 269 270 270 270 270 270 270 270 270 271 271 271 272 273 273 274 274 274 274 274 275 275 275 275 274 274 275 274 273 271 271 272 273 272 271 269 269 270 270 269 267 265 265 261 254 254 254 247 246 250 252 254 255 256 257 257 259 260 261 264 265 270 284 293 297 300 313 330 333 346 359 357 359 9 10 324 234 221 218 212 209 206 206 209 203
270 270 270 270 270 271 271 271 271 271 271 271 271 271 272 272 272 273 273 273 273 273 273 274 274 274 274 273 274 273 273 272 271 272 272 272 272 271 270 269 269 269 269 267 264 261 259 255 253 253 250 248 248 249 250 251 252 254 255 256 257 258 261 263 263 274 287 294 299 310 327 333 344 1 359 356 360 4 346 247 217 209 209 210 208 211 216 211
271 271 271 271 271 271 272 272 272 272 272 272 272 272 272 272 273 273 273 273 273 272 273 273 273 273 273 273 273 273 273 272 272 273 272 271 271 271 270 269 268 267 267 265 262 259 257 254 253 255 254 248 243 244 247 247 247 249 253 255 255 257 260 261 259 260 275 286 294 305 323 332 339 357 2 357 355 353 329 287 250 223 215 214 212 216 221 219
271 271 271 271 271 271 271 271 272 271 272 272 272 272 272 272 272 272 273 272 272 272 273 273 272 272 272 272 273 273 273 273 273 273 272 272 271 270 270 269 267 266 264 262 260 258 256 254 254 255 253 247 243 242 242 244 243 244 249 253 254 255 257 260 258 252 261 275 287 300 314 327 334 349 1 358 353 348 323 285 270 255 240 228 222 223 227 227
270 270 270 270 270 270 270 270 270 270 270 270 271 271 271 271 271 272 272 272 272 272 272 272 271 271 271 272 272 272 272 272 272 272 272 271 270 269 268 267 266 264 263 262 260 257 254 253 252 252 250 247 243 240 241 244 243 241 246 252 255 255 254 256 257 252 252 265 277 289 302 317 328 340 355 357 350 343 328 290 265 257 253 247 241 236 234 231
270 269 269 269 269 269 269 269 269 268 268 268 268 269 269 270 270 270 271 271 271 272 271 271 269 269 269 270 271 271 271 271 270 269 269 270 269 268 267 266 264 263 262 261 259 256 253 252 251 250 249 248 246 244 246 249 246 242 243 249 252 254 254 252 253 251 248 257 268 277 289 304 318 332 349 355 347 336 325 302 275 256 250 251 251 249 242 231
270 270 269 269 269 268 268 268 268 267 267 266 266 267 267 268 269 269 269 269 270 270 270 269 268 268 267 268 269 269 270 269 267 267 267 266 267 266 265 264 263 262 261 259 257 255 253 252 252 251 251 250 249 247 248 248 246 242 241 244 246 249 251 250 248 247 244 247 260 269 277 290 301 318 338 348 343 331 315 298 285 267 251 250 251 252 245 227
270 270 270 270 269 268 268 268 268 267 267 265 265 266 266 266 267 268 268 268 268 268 268 267 267 266 265 266 267 267 266 263 262 264 264 262 262 263 262 262 261 260 259 257 256 254 254 253 252 251 250 249 247 245 245 244 241 240 239 239 241 243 246 249 247 244 241 241 251 261 267 277 286 300 323 331 336 331 310 287 276 267 255 249 248 246 238 223
271 271 271 271 270 269 268 268 268 268 267 266 265 265 265 265 265 266 267 267 266 266 265 264 264 264 264 263 262 263 260 258 260 262 259 256 257 258 258 258 258 257 256 256 255 254 254 253 251 250 248 247 246 244 244 243 240 240 239 238 238 239 240 245 247 244 241 239 243 254 259 265 273 285 306 310 319 326 309 281 262 255 248 244 242 236 232 228
271 271 271 271 270 270 269 268 268 268 267 267 265 264 264 264 264 264 265 265 264 263 261 261 261 261 262 261 258 258 255 255 257 255 252 253 253 254 254 254 254 253 252 252 252 251 252 251 249 248 246 245 245 244 244 243 240 239 239 238 238 236 236 241 244 244 244 240 239 249 254 258 261 271 289 294 303 314 306 282 259 249 242 236 234 233 235 234
271 270 270 270 270 270 269 268 267 267 267 266 266 264 263 262 262 262 262 261 262 261 258 258 258 257 259 260 255 250 249 251 251 247 249 251 251 250 249 250 251 248 248 248 248 249 249 248 247 247 246 245 244 243 243 242 239 237 238 238 237 235 236 238 240 244 246 243 240 246 251 253 255 258 268 278 289 303 307 290 262 250 243 236 233 235 237 228
269 270 270 270 269 269 269 267 267 266 266 265 265 264 263 261 260 260 259 258 259 259 256 255 254 254 257 259 253 244 246 250 247 243 246 249 248 246 245 246 244 243 244 244 245 246 246 246 247 247 246 244 243 242 241 240 239 238 236 237 237 236 236 238 238 242 246 244 241 245 251 251 250 249 254 263 271 286 302 290 262 249 242 234 230 230 225 208
269 269 269 269 269 269 269 267 266 265 265 264 263 263 262 261 260 258 257 255 254 255 256 253 250 252 254 255 252 246 245 248 247 242 244 246 243 240 241 240 239 241 242 240 242 244 242 244 246 246 246 244 242 242 242 241 239 237 237 239 240 239 237 237 236 238 244 244 239 244 251 250 247 245 246 249 252 260 281 276 251 228 224 221 216 211 203 189
269 269 269 268 268 269 269 268 266 264 263 263 262 261 260 259 258 257 255 253 250 252 255 253 248 249 252 252 251 246 242 246 249 242 239 242 240 237 239 239 241 242 240 238 242 242 240 240 242 244 246 244 243 244 244 242 240 239 240 241 240 238 236 235 234 235 240 241 237 240 247 248 244 241 240 240 236 234 245 244 215 195 202 205 200 197 189 180
269 268 268 268 268 268 268 268 266 264 262 261 260 259 257 256 256 255 253 252 248 248 252 253 249 246 247 249 250 247 240 243 248 242 236 239 241 238 238 240 241 241 239 239 242 243 239 238 241 243 244 244 244 245 244 242 242 242 242 241 238 236 234 234 232 231 235 237 237 236 238 243 242 236 237 236 226 218 226 225 202 188 190 193 191 190 184 177
270 269 268 268 267 267 266 266 266 264 262 260 259 257 255 254 253 252 251 250 247 246 249 252 250 246 243 245 247 246 242 240 243 242 237 237 238 236 234 237 239 240 239 238 242 245 241 240 242 241 241 243 243 242 242 243 244 244 242 240 238 235 233 232 230 228 230 232 234 232 231 238 241 234 234 235 224 212 216 215 205 194 187 184 186 188 184 179
270 269 268 267 267 266 265 264 264 263 262 260 257 256 254 252 250 249 248 248 246 244 246 249 250 247 243 241 242 244 243 240 239 239 237 236 236 234 233 236 239 241 240 239 244 245 241 241 242 240 241 243 241 238 242 244 243 241 241 241 240 237 235 232 229 228 227 227 230 230 227 233 240 236 234 234 227 216 213 210 206 202 194 185 185 190 189 185
269 268 267 266 266 265 264 262 261 261 261 260 257 255 253 251 250 248 247 246 244 243 243 245 248 248 245 240 238 239 241 240 237 236 236 236 236 234 233 235 237 239 238 237 240 241 237 236 238 239 242 242 240 238 242 245 241 240 243 243 242 240 237 233 230 227 225 225 229 230 227 230 237 237 235 234 231 222 214 211 209 208 204 195 190 193 196 193
269 267 266 265 264 263 262 261 260 259 258 258 257 255 253 250 249 249 246 243 243 241 240 242 244 246 245 242 238 235 237 239 238 235 233 234 236 234 233 233 233 234 234 233 235 238 237 235 237 242 243 241 238 239 242 244 242 240 243 245 244 242 238 233 229 226 224 225 228 229 227 229 235 238 236 233 232 227 218 213 213 213 211 205 198 198 201 201
268 267 266 264 262 261 260 260 259 259 257 256 256 255 253 251 249 247 244 242 241 240 239 239 240 243 244 242 239 235 234 236 238 236 233 231 234 235 234 233 233 233 234 233 235 238 239 237 238 243 242 236 233 235 239 243 246 246 245 243 242 239 235 232 229 227 226 225 226 227 226 229 234 235 235 232 230 230 225 217 215 215 216 212 206 203 205 207
267 266 265 264 262 260 258 258 258 257 256 255 254 253 253 252 249 245 242 241 240 238 238 237 237 239 241 241 240 237 234 234 236 237 235 232 232 235 236 235 234 232 231 232 232 234 234 233 233 235 235 232 230 234 239 245 250 246 238 236 238 237 233 234 233 231 231 227 225 225 223 228 233 232 233 233 230 231 230 224 218 215 217 218 212 208 209 211
266 265 264 263 262 259 257 256 255 255 255 254 252 251 251 251 249 245 242 241 239 238 237 236 236 236 238 239 239 238 236 234 234 236 237 235 232 233 234 234 233 231 230 230 230 230 231 230 230 231 233 234 234 237 240 243 242 237 236 233 234 235 233 234 233 230 231 227 223 221 219 225 232 231 232 234 231 229 230 228 224 217 216 217 216 214 213 213
265 264 263 262 261 259 256 254 253 253 253 253 252 251 250 248 246 245 242 240 239 237 236 236 235 235 235 237 238 238 237 236 234 234 236 236 233 232 232 233 232 231 231 231 231 232 232 233 233 232 235 237 236 237 238 238 236 237 237 231 231 234 227 224 225 223 226 224 220 219 217 222 229 229 229 231 231 229 228 227 228 224 218 216 217 218 216 216
265 264 262 261 259 258 256 254 252 251 251 251 251 250 249 247 245 244 242 240 238 237 236 236 235 234 234 235 236 237 237 236 235 234 234 235 234 232 233 233 233 233 232 231 233 234 234 237 238 235 237 239 238 238 238 237 236 233 231 232 232 227 215 216 219 218 223 225 221 219 219 221 227 228 226 227 229 228 226 225 226 227 224 220 219 219 218 218
264 263 262 260 259 257 255 253 251 250 249 249 250 248 247 246 245 243 242 240 238 237 235 235 235 235 234 234 234 236 237 237 236 234 234 234 234 233 234 234 233 233 232 230 231 232 233 236 238 236 237 240 239 237 238 237 234 230 232 234 227 213 211 211 213 215 220 224 221 219 219 221 225 227 225 225 228 229 228 226 225 227 228 227 224 221 219 220
264 263 262 260 259 257 255 253 252 250 249 248 248 247 246 245 244 243 241 239 238 237 236 235 235 235 234 233 233 234 237 237 237 235 234 233 233 233 234 234 234 234 232 230 230 231 231 232 234 234 235 237 236 235 236 236 234 234 235 235 227 217 215 210 211 213 211 215 219 219 220 221 225 228 226 225 228 230 231 230 228 228 230 231 230 226 224 222
265 263 262 261 259 258 256 255 253 250 249 248 247 246 245 244 243 242 241 239 238 237 237 236 235 235 235 234 233 233 235 237 238 237 235 234 232 232 233 233 233 233 232 231 230 231 231 229 232 234 233 233 234 233 233 235 235 234 235 236 230 223 222 218 213 210 205 209 217 221 223 224 227 231 228 226 227 229 231 233 231 231 232 234 235 232 229 227
265 264 262 260 259 258 256 255 254 252 250 248 247 246 245 244 242 242 241 240 238 237 237 236 235 235 234 234 234 233 234 235 237 237 236 234 233 232 232 232 232 233 232 232 231 231 232 229 231 236 235 232 232 231 230 232 233 232 231 233 231 224 224 218 206 212 212 211 217 224 230 228 227 231 231 227 227 227 229 232 233 233 233 235 237 236 235 232
266 264 262 260 259 258 257 255 254 253 251 249 248 246 245 244 242 241 241 240 238 237 236 235 235 235 234 234 234 233 233 234 236 237 237 235 233 232 231 231 232 232 232 232 231 231 232 230 230 236 237 233 231 230 228 229 232 231 228 231 229 222 219 212 208 218 215 210 216 224 240 236 224 222 229 229 227 227 226 229 232 233 233 234 235 236 236 237
266 265 263 261 259 258 257 255 254 253 252 251 249 247 245 244 242 241 240 239 237 236 235 235 234 234 234 233 233 233 233 233 234 235 236 236 234 232 231 231 231 231 231 232 232 231 231 230 229 233 236 234 231 229 228 228 230 230 229 230 229 223 223 220 222 224 210 203 214 219 246 247 229 215 221 224 226 227 226 226 228 231 232 233 234 234 235 236
266 264 263 261 258 257 255 254 253 253 252 251 250 247 245 244 243 241 240 239 238 236 235 234 234 234 233 233 233 233 233 233 233 234 235 236 235 234 232 231 231 231 231 231 231 231 231 230 229 230 234 235 232 231 230 229 231 231 230 231 230 228 229 227 229 229 213 210 220 218 246 254 240 223 219 218 219 223 225 225 226 229 231 233 234 235 234 234
266 264 262 260 258 256 254 253 252 251 251 251 250 248 246 244 243 242 241 240 238 237 235 234 233 233 233 233 233 233 233 233 233 233 234 235 235 234 233 232 231 231 231 231 231 231 231 230 229 229 232 235 234 233 231 230 230 230 231 232 232 231 231 228 229 229 222 223 223 213 234 251 250 237 224 220 222 221 223 227 227 228 231 233 235 237 237 237
266 264 262 260 257 255 253 251 250 249 249 249 249 248 247 246 243 242 241 240 239 237 236 234 233 233 233 232 232 233 233 233 233 232 232 233 234 234 234 233 231 231 231 231 230 231 231 230 229 229 231 233 234 234 233 231 230 229 229 231 233 234 233 230 229 227 225 227 223 215 226 245 256 252 236 226 229 226 223 226 228 228 230 233 235 237 238 240
266 264 262 260 257 255 252 251 249 247 246 246 246 247 247 246 245 243 241 240 239 238 237 235 234 233 232 232 232 232 232 233 233 233 232 232 232 233 233 233 232 232 231 231 230 230 231 231 230 229 230 232 233 234 234 232 231 229 229 229 232 234 234 233 231 229 229 227 221 220 226 234 249 257 253 239 233 233 231 230 230 230 229 231 233 235 237 239
267 264 262 260 258 255 252 250 248 246 244 243 243 244 244 245 244 243 242 240 239 238 237 236 234 233 232 232 231 231 232 232 233 233 232 232 231 232 233 233 233 232 231 231 231 230 230 231 230 229 229 230 232 234 235 233 231 230 230 230 232 234 235 234 233 233 233 228 221 224 227 230 240 253 260 256 245 238 240 243 240 236 231 229 230 232 235 237
267 265 262 259 258 255 252 249 246 245 244 242 241 241 241 242 243 243 242 241 239 238 237 236 235 234 232 231 231 231 231 231 232 233 233 232 231 231 231 232 232 232 231 231 231 231 230 230 231 230 230 230 231 233 234 234 232 231 231 231 232 233 234 234 233 233 233 230 227 230 233 237 242 248 256 262 259 247 237 240 243 242 239 235 231 231 233 235
269 266 263 260 257 255 253 250 246 244 243 242 240 239 238 239 241 241 241 240 239 238 237 236 236 235 233 232 231 231 230 231 231 232 233 233 232 231 231 231 231 231 231 231 231 231 230 230 231 230 230 230 231 232 233 234 233 232 232 232 232 232 233 232 232 233 233 231 232 234 237 241 246 247 249 256 262 259 247 238 238 241 245 245 242 238 236 237
272 268 265 261 258 255 252 250 247 243 241 240 239 238 237 237 237 239 239 239 239 238 237 236 235 235 234 233 232 231 231 230 230 231 232 233 233 232 231 231 231 231 231 231 230 230 230 230 230 230 230 230 231 232 232 234 234 232 232 233 233 232 232 232 233 233 233 234 234 235 239 242 243 242 242 247 257 262 260 252 244 241 245 249 249 247 244 242
273 269 266 263 259 255 252 250 247 244 241 239 238 237 236 235 235 236 237 238 238 238 237 236 235 234 234 233 232 231 231 230 230 230 231 232 233 233 232 232 232 232 231 231 231 230 230 230 230 230 230 229 231 231 231 232 233 232 233 234 234 233 233 233 234 234 234 235 235 235 238 239 237 239 243 246 252 258 260 259 255 250 249 250 249 248 249 248